Tracking 19476 objects as of 17-Jan-2019
HD Live streaming from Space Station
objects crossing your sky now

SATCOM 2

Track SATCOM 2 now!
SATCOM 2 is classified as:


NORAD ID: 8774
Int'l Code: 1976-029A
Perigee: 36,031.2 km
Apogee: 36,494.6 km
Inclination: 14.0 °
Period: 1,460.1 minutes
Semi major axis: 42633 km
RCS: 2.9464 m2 (large)
Launch date: March 26, 1976
Source: United States (US)
Launch site: AIR FORCE EASTERN TEST RANGE (AFETR)
aabbcc
Your satellite tracking list
Your tracking list is empty




NASA's NSSDC Master Catalog

Two Line Element Set (TLE):
1  8774U 76029A   19016.36293979 -.00000001  00000-0  00000+0 0  9996
2  8774  13.9903 333.0329 0054344 170.0214 190.1280  0.98621146 92796
Source of the keplerian elements: AFSPC